Terminal Aerodrome Forecast
Issued by NWS

Home | Current Version | Previous Version | Text Only | Print | Product List | Glossary On
Versions: 1 2 3 4 5 6 7 8 9 10 11 12 13 14 15 16 17 18 19 20 21 22 23 24 25 26 27 28 29 30 31 32 33 34 35 36 37 38 39 40 41 42 43 44 45 46 47 48 49 50
000
FTUS41 KCTP 241214 AAA
TAFJST
TAF AMD
KJST 241214Z 2412/2512 35008KT 1/2SM SN OVC004
     FM241500 34008G20KT 5SM -SN BR SCT005 BKN009 OVC015
     FM241900 33015G25KT P6SM SCT009 BKN015 OVC025
     FM250100 28010G20KT P6SM -SHSN SCT015 BKN025=

USA.gov is the U.S. government's official web portal to all federal, state and local government web resources and services.